Regional Weather Roundup
Issued by NWS

Home | Current Version | Previous Version | Graphics & Text | Print | Product List | Glossary On
Versions: 1 2 3 4 5 6 7 8 9 10 11 12 13 14 15 16 17 18 19 20 21 22 23 24 25 26 27 28 29 30 31 32 33 34 35 36 37 38 39 40 41 42 43 44 45 46 47 48 49 50
000
ASUS43 KDMX 010107
RWRIA

WEATHER ROUNDUP FOR IOWA
NATIONAL WEATHER SERVICE DES MOINES IA
800 PM CDT TUE SEP 30 2014

NOTE: "FAIR" INDICATES FEW OR NO CLOUDS BELOW 12,000 FEET WITH NO
SIGNIFICANT WEATHER AND/OR OBSTRUCTIONS TO VISIBILITY.

* - THESE STATIONS ARE NOT NWS STATIONS...THUS NOT UNDER NWS
QUALITY CONTROL.  THEY ALSO DO NOT REPORT WEATHER SUCH
AS PRECIPITATION OR FOG.

IAZ001>003-012>014-020>022-031>034-043>046-010200-
   NORTHWEST IOWA

CITY           SKY/WX    TMP DP  RH WIND       PRES   REMARKS
CARROLL *      LGT RAIN  61  61 100 E9        29.85S
CHEROKEE *     CLOUDY    61  61 100 SE9       29.82R
DENISON *      CLOUDY    63  63 100 SE8G16    29.79R
LE MARS *        N/A     64  61  88 SE10G23   29.79R
ORANGE CITY *  MOCLDY    63  59  88 SE9G16    29.79R
SHELDON *      PTCLDY    61  59  94 SE10      29.78S
SIOUX CITY     CLOUDY    66  63  90 SE9       29.78R
SPENCER        CLOUDY    61  58  90 SE15      29.82F
STORM LAKE *   MOCLDY    61  59  94 E10G17    29.83F
$$

IAZ055>058-069>071-079>083-090>094-010200-
   SOUTHWEST IOWA

CITY           SKY/WX    TMP DP  RH WIND       PRES   REMARKS
ATLANTIC *     DRIZZLE   64  64 100 E9        29.82F
AUDUBON *      HVY RAIN  64  59  82 E9        29.85F
CLARINDA *     CLOUDY    66  66 100 NE7G15    29.82S
COUNCIL BLFS * DRIZZLE   64  64 100 N5G12     29.81R
CRESTON *      CLOUDY    68  63  83 E9        29.83R
HARLAN  *      LGT RAIN  64  64 100 CALM      29.85R
LAMONI         MOCLDY    68  63  84 E7        29.83R
RED OAK *      HVY RAIN  66  64  94 NE14      29.80F
SHENANDOAH *   LGT RAIN  66  64  94 NE13      29.78F
$$

IAZ047>049-059>061-072>074-084-010200-
   CENTRAL IOWA

CITY           SKY/WX    TMP DP  RH WIND       PRES   REMARKS
AMES           CLOUDY    64  56  75 E7        29.86R
ANKENY *       MOCLDY    66  57  72 SE12      29.85R
CHARITON *     CLOUDY    66  61  82 E10       29.85R
DES MOINES     CLOUDY    68  58  70 E12       29.84S
GRINNELL*      MOCLDY    61  55  82 E8        29.90S
KNOXVILLE *    CLOUDY    66  57  72 E12G20    29.85S
MARSHALLTOWN   CLOUDY    60  54  80 E14       29.88S
PELLA *        MOCLDY    66  57  72 E7G16     29.88S
PERRY *        RAIN      63  61  94 NE3       29.87R
$$

IAZ004>006-015-016-023>025-035-036-010200-
   NORTH CENTRAL IOWA

CITY           SKY/WX    TMP DP  RH WIND       PRES   REMARKS
ALGONA *       RAIN      59  59 100 E12       29.89S
CLARION *      RAIN      59  57  94 E3        29.91R
ESTHERVILLE    CLOUDY    59  57  93 SE7       29.82S
FORT DODGE *   CLOUDY    61  57  88 E5        29.89F
MASON CITY     CLOUDY    60  51  72 SE10      29.91S
FOREST CITY *  MOCLDY    59  54  82 CALM      29.93R
IOWA FALLS *   MOCLDY    61  54  77 SE8       29.90R
$$

IAZ007>011-017>019-026>030-037>042-050>054-066-010200-
   NORTHEAST IOWA

CITY           SKY/WX    TMP DP  RH WIND       PRES   REMARKS
CEDAR RAPIDS   CLEAR     57  52  82 E8        29.92S
CHARLES CITY * PTCLDY    55  48  76 E12       29.93S
CLINTON *      CLEAR     54  46  76 E8        29.99F
DECORAH *      CLOUDY    50  46  87 E9        29.96R
MONTICELLO *   CLEAR     54  48  82 E9        29.97R
OELWEIN *      PTCLDY    55  46  71 E12       29.95R
WATERLOO       MOCLDY    58  49  72 E10       29.92R
$$

IAZ064-065-067-068-078-010200-
   EAST CENTRAL IOWA

CITY           SKY/WX    TMP DP  RH WIND       PRES   REMARKS
IOWA CITY      PTCLDY    60  52  74 E9        29.93F
MT. PLEASANT * PTCLDY    61  54  77 E7        29.91R
MUSCATINE *    CLEAR     63  52  67 E9        29.94R
$$

IAZ062-063-075>077-085>089-095>099-010200-
   SOUTHEAST IOWA

CITY           SKY/WX    TMP DP  RH WIND       PRES   REMARKS
BURLINGTON     CLEAR     65  56  72 E7        29.91S
FAIRFIELD *    CLEAR     61  55  82 E8        29.90R
FORT MADISON * CLEAR     66  57  72 E7        29.92R
KEOKUK *       CLEAR     64  59  82 E8        29.89R
OSKALOOSA *      N/A     63  57  82 E7        29.89S
CENTERVILLE *  PTCLDY    66  63  88 E7        29.88S
OTTUMWA        PTCLDY    63  56  78 E10       29.88S
WASHINGTON *   CLEAR     61  54  77 E10       29.91S
$$

ABBREVIATIONS USED IN REMARKS
   TC - TEMPERATURES IN CELSIUS
  WCI - WIND CHILL INDEX
   HX - HEAT INDEX
  VSB - VISIBILITY
$$



USA.gov is the U.S. government's official web portal to all federal, state and local government web resources and services.